Location: Thompson
(55.7500°N, 97.8670°W)
Time: 11:20:54
(UTC-05:00)

Amateur Radio Satellites - All Passes

Search period start: 29 May 2015 10:50
Search period end: 30 May 2015 10:50
Location: Thompson, 55.7500°N, 97.8670°W

Satellite Date Start Highest point End Downlink Frequencies (MHz)
Time Altitude Azimuth
FUNcube-1 29 May 10:51:38 10:55:14 25° 91° (E) 10:58:48 145.935
GOMX 1 29 May 11:02:03 11:07:20 50° 294° (WNW) 11:12:21 467.674
AISAT 29 May 11:04:31 11:05:47 11° 81° (E) 11:07:15 437.250
HUMSAT D 29 May 11:06:24 11:09:16 18° 87° (E) 11:12:12 437.325/437.525
CINEMA 3 29 May 11:08:49 11:13:41 87° 102° (ESE) 11:18:16 145.822/145.860
UNISAT 6 29 May 11:10:48 11:15:29 76° 256° (WSW) 11:20:05 437.425
NANOSAT C BR1 29 May 11:11:28 11:15:41 60° 70° (ENE) 11:19:57 145.865
BRITE-PL 29 May 11:12:55 11:18:02 34° 301° (WNW) 11:22:58 437.365/2234.400
SO-50 29 May 11:16:30 11:21:30 78° 224° (SW) 11:26:27 436.795
CANX-2 29 May 11:18:57 11:22:56 40° 294° (WNW) 11:26:52 2200.000
GONETS M04 29 May 11:21:16 11:23:35 12° 62° (ENE) 11:26:25
QB50P2 29 May 11:21:24 11:25:42 75° 72° (ENE) 11:30:03 145.880/145.840
CUTE 1.7 + AOD 2 29 May 11:22:05 11:26:04 41° 294° (WNW) 11:30:01 437.475
50 SAT 29 May 11:26:26 11:28:49 16° 87° (E) 11:31:18 437.505
UKube-1 29 May 11:29:31 11:33:13 27° 93° (E) 11:36:58 .
DUCHIFAT 1 29 May 11:32:45 11:37:03 89° 74° (ENE) 11:41:23 145.980
ZACube-1 29 May 11:32:58 11:37:18 57° 100° (E) 11:41:31 437.345
POPSAT HIP 1 29 May 11:32:59 11:37:19 89° 253° (WSW) 11:41:40 437.405
Oscar 11 29 May 11:39:25 11:43:45 83° 289° (WNW) 11:48:04 145.826/435.025
SEEDS 29 May 11:40:40 11:44:28 33° 296° (WNW) 11:48:13 437.485
DX 1 29 May 11:42:00 11:46:05 36° 97° (E) 11:50:09 434.975-435.025
CUBEBUG 2 29 May 11:42:53 11:47:27 84° 287° (WNW) 11:51:48 437.445
BUGSAT 1 29 May 11:43:54 11:48:07 84° 74° (ENE) 11:52:24 437.445
COMPASS 1 29 May 11:49:39 11:53:24 33° 296° (WNW) 11:57:07 437.405
DOVE 4 29 May 11:50:31 11:55:06 31° 301° (WNW) 11:59:26 437.250
ANTELSAT 29 May 11:54:54 11:59:10 34° 265° (W) 12:03:22 437.575/2403.000
CUBEBUG 1 29 May 11:57:28 12:00:33 18° 87° (E) 12:03:43 437.445
Oscar 19 29 May 11:58:10 12:01:32 18° 49° (NE) 12:05:01 437.125/150
AAUSAT CUBESAT 2 29 May 11:59:33 12:03:13 30° 297° (WNW) 12:06:50 437.432
Cosmos 2504 29 May 12:05:25 12:13:18 54° 292° (WNW) 12:20:39 435.465 / 435.565
VELOX 1 29 May 12:06:23 12:10:30 34° 95° (E) 12:14:37 145.980
DELFI C3 29 May 12:08:41 12:12:40 56° 290° (WNW) 12:16:36 145.870
HO-68 29 May 12:14:18 12:20:56 41° 306° (NW) 12:27:28 435.675
QB50P1 29 May 12:17:15 12:21:16 38° 263° (W) 12:25:19 145.935-145.965
DANDE 29 May 12:18:25 12:24:22 24° 78° (ENE) 12:30:52 436.750
ESTCUBE 1 29 May 12:19:42 12:23:43 31° 94° (E) 12:27:46 437.505/2401.250
ITAMSAT 1 29 May 12:20:13 12:21:58 12° 41° (NE) 12:23:52 435.822/435.867
POLYITAN 1 29 May 12:20:50 12:24:49 35° 264° (W) 12:28:49 437.675
UWE-3 29 May 12:24:50 12:29:06 45° 293° (WNW) 12:33:13 435.000/436.395/437.385
AO-7 29 May 12:24:50 12:29:46 18° 16° (NNE) 12:34:48 29.400- 29.500
SPROUT 29 May 12:27:06 12:28:38 12° 82° (E) 12:30:21 437.525
TIGRISAT 29 May 12:27:33 12:31:04 20° 271° (W) 12:34:28 435.000
FUNcube-1 29 May 12:27:36 12:31:52 51° 292° (WNW) 12:35:59 145.935
CUSAT 1 29 May 12:30:31 12:37:20 33° 84° (E) 12:44:29 437.405
AISAT 29 May 12:38:51 12:43:22 65° 103° (ESE) 12:47:50 437.250
TISAT 1 29 May 12:40:07 12:41:26 11° 82° (E) 12:42:56 437.305
HUMSAT D 29 May 12:41:20 12:45:32 69° 289° (WNW) 12:49:38 437.325/437.525
GOMX 1 29 May 12:41:30 12:44:20 14° 315° (NW) 12:46:59 467.674
YUBILEINY 29 May 12:43:42 12:47:38 13° 338° (NNW) 12:51:22 435.215
CINEMA 3 29 May 12:46:47 12:50:18 20° 306° (NW) 12:53:38 145.822/145.860
NANOSAT C BR1 29 May 12:48:32 12:51:55 22° 270° (W) 12:55:15 145.865
UNISAT 6 29 May 12:50:42 12:53:07 14° 277° (W) 12:55:19 437.425
BRITE-PL 29 May 12:53:40 12:55:04 11° 322° (NW) 12:56:17 437.365/2234.400
SO-50 29 May 12:57:53 13:01:25 19° 245° (WSW) 13:04:51 436.795
RS-15 29 May 12:58:43 13:09:41 60° 342° (NNW) 13:21:08 29.354- 29.394
QB50P2 29 May 12:59:09 13:02:09 18° 273° (W) 13:05:04 145.880/145.840
50 SAT 29 May 13:00:09 13:04:03 71° 288° (WNW) 13:07:54 437.505
UKube-1 29 May 13:05:21 13:09:36 50° 293° (WNW) 13:13:49 .
ZACube-1 29 May 13:09:48 13:13:24 25° 301° (WNW) 13:16:52 437.345
GONETS M04 29 May 13:10:00 13:18:06 44° 86° (E) 13:26:18
Gurwin Techsat 1B 29 May 13:10:51 13:14:47 22° 52° (NE) 13:18:50 435.225
DUCHIFAT 1 29 May 13:11:00 13:13:33 15° 275° (W) 13:15:58 145.980
POPSAT HIP 1 29 May 13:11:24 13:13:54 15° 275° (W) 13:16:16 437.405
Oscar 11 29 May 13:16:38 13:19:21 16° 307° (NW) 13:21:58 145.826/435.025
DX 1 29 May 13:18:16 13:22:22 38° 297° (WNW) 13:26:26 434.975-435.025
CUBEBUG 2 29 May 13:20:33 13:23:31 17° 307° (NW) 13:26:19 437.445
BUGSAT 1 29 May 13:21:36 13:24:14 16° 274° (W) 13:26:45 437.445
CUBEBUG 1 29 May 13:32:59 13:37:28 76° 288° (WNW) 13:41:55 437.445
Oscar 19 29 May 13:34:58 13:40:08 71° 70° (ENE) 13:45:21 437.125/150
VELOX 1 29 May 13:42:55 13:47:09 41° 296° (WNW) 13:51:20 145.980
DELFI C3 29 May 13:45:49 13:46:59 11° 310° (NW) 13:48:01 145.870
ITAMSAT 1 29 May 13:55:28 14:00:17 41° 62° (ENE) 14:05:11 435.822/435.867
ESTCUBE 1 29 May 13:56:25 14:00:47 46° 294° (WNW) 14:05:06 437.505/2401.250
DANDE 29 May 13:58:33 14:06:26 75° 99° (E) 14:15:04 436.750
SPROUT 29 May 14:01:14 14:05:37 72° 103° (ESE) 14:09:57 437.525
HO-68 29 May 14:02:47 14:07:00 17° 330° (NNW) 14:11:03 435.675
Cosmos 2504 29 May 14:03:40 14:08:45 18° 319° (NW) 14:13:27 435.465 / 435.565
UWE-3 29 May 14:03:48 14:04:37 10° 314° (NW) 14:05:18 435.000/436.395/437.385
FUNcube-1 29 May 14:05:51 14:07:17 11° 312° (NW) 14:08:33 145.935
CUSAT 1 29 May 14:11:20 14:19:24 84° 287° (WNW) 14:27:45 437.405
AO-7 29 May 14:13:09 14:20:15 34° 43° (NE) 14:27:28 29.400- 29.500
TISAT 1 29 May 14:13:48 14:18:06 71° 103° (ESE) 14:22:22 437.305
HORYU 2 29 May 14:13:54 14:16:10 14° 50° (NE) 14:18:34 437.375
AISAT 29 May 14:15:58 14:19:37 24° 303° (WNW) 14:23:10 437.250
HUMSAT D 29 May 14:18:27 14:20:34 14° 309° (NW) 14:22:35 437.325/437.525
JAS-2 29 May 14:27:24 14:31:57 24° 53° (NE) 14:36:17 435.910
Cosmos 2499 29 May 14:35:02 14:41:18 29° 82° (E) 14:47:24 435.465 / 435.565
50 SAT 29 May 14:36:20 14:38:07 13° 308° (NW) 14:39:47 437.505
UKube-1 29 May 14:43:25 14:44:52 11° 313° (NW) 14:46:10 .
YUBILEINY 29 May 14:47:21 14:49:41 11° 12° (NNE) 14:52:08 435.215
ITUPSAT 1 29 May 14:47:47 14:52:05 32° 95° (E) 14:56:24 437.325
Gurwin Techsat 1B 29 May 14:48:51 14:54:11 88° 73° (ENE) 14:59:34 435.225
BEESAT 29 May 14:53:36 14:58:02 36° 96° (E) 15:02:27 436.000
SWISSCUBE 29 May 15:02:30 15:07:06 45° 99° (E) 15:11:42 437.505
GONETS M04 29 May 15:05:58 15:14:45 63° 290° (WNW) 15:23:33
CUBEBUG 1 29 May 15:10:27 15:13:12 16° 308° (NW) 15:15:50 437.445
RS-15 29 May 15:13:03 15:24:09 58° 14° (NNE) 15:35:46 29.354- 29.394
Oscar 19 29 May 15:15:48 15:20:02 24° 271° (W) 15:24:12 437.125/150
ITAMSAT 1 29 May 15:34:55 15:39:51 42° 263° (W) 15:44:48 435.822/435.867
ESTCUBE 1 29 May 15:35:25 15:36:41 11° 314° (NW) 15:37:48 437.505/2401.250
SPROUT 29 May 15:37:59 15:41:18 21° 303° (WNW) 15:44:31 437.525
DANDE 29 May 15:42:48 15:50:26 41° 303° (WNW) 15:58:25 436.750
HORYU 2 29 May 15:47:39 15:52:05 64° 69° (ENE) 15:56:32 437.375
KKS-1 29 May 15:49:08 15:52:56 26° 92° (E) 15:56:44 437.445
TISAT 1 29 May 15:50:14 15:53:30 21° 303° (WNW) 15:56:40 437.305
HO-68 29 May 15:51:26 15:51:54 10° 357° (N) 15:52:19 435.675
CUSAT 1 29 May 15:56:08 16:03:19 31° 309° (NW) 16:10:23 437.405
O/OREOS (USA 219) 29 May 15:56:12 16:00:11 32° 109° (ESE) 16:04:13 437.305
AO-7 29 May 16:03:56 16:12:16 86° 66° (ENE) 16:20:41 29.400- 29.500
JAS-2 29 May 16:10:21 16:16:37 90° 85° (E) 16:22:14 435.910
ITUPSAT 1 29 May 16:25:33 16:30:10 47° 295° (WNW) 16:34:45 437.325
Cosmos 2499 29 May 16:25:59 16:33:51 81° 284° (WNW) 16:41:13 435.465 / 435.565
Gurwin Techsat 1B 29 May 16:31:05 16:34:58 20° 274° (W) 16:38:43 435.225
BEESAT 29 May 16:31:27 16:35:58 42° 296° (WNW) 16:40:28 436.000
CUTE-I 29 May 16:31:30 16:34:27 15° 45° (NE) 16:37:32 437.470
SWISSCUBE 29 May 16:40:32 16:44:53 35° 299° (WNW) 16:49:12 437.505
YUBILEINY 29 May 16:44:11 16:50:52 24° 44° (NE) 16:57:43 435.215
STARS 29 May 16:46:02 16:50:24 53° 101° (E) 16:54:45 437.465
Cubesat XI-IV 29 May 16:51:57 16:55:40 20° 50° (NE) 16:59:30 437.490
GONETS M04 29 May 17:07:07 17:13:51 23° 318° (NW) 17:20:23
KKS-1 29 May 17:25:27 17:29:51 52° 293° (WNW) 17:34:12 437.445
HORYU 2 29 May 17:25:38 17:29:09 22° 270° (W) 17:32:36 437.375
RS-15 29 May 17:26:15 17:37:44 88° 222° (SW) 17:49:45 29.354- 29.394
DANDE 29 May 17:30:52 17:36:20 18° 329° (NNW) 17:41:36 436.750
HO-68 29 May 17:33:22 17:36:38 14° 24° (NNE) 17:40:03 435.675
O/OREOS (USA 219) 29 May 17:35:07 17:39:30 48° 310° (NW) 17:43:53 437.305
BEESAT 2 29 May 17:35:20 17:35:39 10° 111° (ESE) 17:36:10 435.950
MOZHAYETS 4 29 May 17:38:40 17:42:46 32° 94° (E) 17:46:54
CUSAT 1 29 May 17:44:51 17:48:56 14° 334° (NNW) 17:52:45 437.405
JAS-2 29 May 17:57:55 18:02:30 21° 273° (W) 18:06:38 435.910
AO-7 29 May 17:58:59 18:06:10 30° 270° (W) 18:13:14 29.400- 29.500
ITUPSAT 1 29 May 18:05:11 18:07:05 12° 315° (NW) 18:08:49 437.325
CUTE-I 29 May 18:08:23 18:13:34 56° 66° (ENE) 18:18:49 437.470
BEESAT 29 May 18:11:26 18:12:45 11° 317° (NW) 18:13:55 436.000
BEESAT 3 29 May 18:16:50 18:20:13 26° 121° (ESE) 18:23:41 437.485
Cosmos 2499 29 May 18:22:07 18:28:17 25° 309° (NW) 18:34:02 435.465 / 435.565
STARS 29 May 18:22:50 18:26:39 28° 301° (WNW) 18:30:23 437.465
Cubesat XI-IV 29 May 18:29:46 18:35:05 78° 71° (ENE) 18:40:28 437.490
YUBILEINY 29 May 18:40:59 18:49:42 69° 72° (ENE) 18:58:23 435.215
Cosmos 2491 29 May 18:56:10 19:03:39 34° 81° (E) 19:11:18 435.465 / 435.565
GOMX 1 29 May 19:03:01 19:06:48 20° 51° (NE) 19:10:45 467.674
KKS-1 29 May 19:03:47 19:05:36 12° 313° (NW) 19:07:16 437.445
BEESAT 2 29 May 19:08:54 19:12:56 53° 130° (SE) 19:17:00 435.950
CANX-2 29 May 19:10:30 19:12:05 12° 50° (NE) 19:13:47 2200.000
GONETS M04 29 May 19:12:48 19:15:14 11° 351° (N) 19:17:34
CUTE 1.7 + AOD 2 29 May 19:13:40 19:15:10 12° 50° (NE) 19:16:48 437.475
BRITE-PL 29 May 19:14:33 19:19:12 30° 58° (ENE) 19:24:07 437.365/2234.400
MOZHAYETS 4 29 May 19:15:48 19:20:10 44° 294° (WNW) 19:24:30
HO-68 29 May 19:16:15 19:22:23 32° 49° (NE) 19:28:36 435.675
O/OREOS (USA 219) 29 May 19:17:12 19:20:01 16° 334° (NNW) 19:22:48 437.305
AIST 2 29 May 19:18:34 19:22:10 27° 122° (ESE) 19:25:50 435.215
DANDE 29 May 19:21:24 19:23:31 11° 356° (N) 19:25:35 436.750
CUBESAT XI-V 29 May 19:25:34 19:29:52 35° 94° (E) 19:34:12 437.345
SEEDS 29 May 19:30:51 19:32:53 14° 52° (NE) 19:35:04 437.485
PRISM 29 May 19:32:10 19:35:01 18° 89° (E) 19:37:59 437.425
RS-15 29 May 19:38:57 19:49:10 38° 249° (WSW) 19:59:31 29.354- 29.394
COMPASS 1 29 May 19:39:15 19:41:14 13° 52° (NE) 19:43:20 437.405
DOVE 4 29 May 19:48:20 19:52:42 28° 57° (ENE) 19:57:11 437.250
AAUSAT CUBESAT 2 29 May 19:48:35 19:50:43 14° 53° (NE) 19:52:57 437.432
CUTE-I 29 May 19:49:14 19:53:59 32° 267° (W) 19:58:43 437.470
BEESAT 3 29 May 19:53:48 19:57:55 69° 322° (NW) 20:02:03 437.485
Cosmos 2504 29 May 19:54:58 20:01:02 28° 54° (NE) 20:07:06 435.465 / 435.565
Cubesat XI-IV 29 May 20:11:39 20:15:51 23° 272° (W) 20:19:58 437.490
STRAND 1 29 May 20:18:48 20:23:43 43° 98° (E) 20:28:38 437.568
UWE-3 29 May 20:18:54 20:21:10 14° 50° (NE) 20:23:33 435.000/436.395/437.385
FUNcube-1 29 May 20:21:30 20:23:03 12° 48° (NE) 20:24:43 145.935
YUBILEINY 29 May 20:38:17 20:46:08 39° 276° (W) 20:53:51 435.215
GOMX 1 29 May 20:38:48 20:44:09 76° 72° (ENE) 20:49:42 467.674
CINEMA 3 29 May 20:40:50 20:45:22 36° 62° (ENE) 20:49:56 145.822/145.860
CANX-2 29 May 20:43:03 20:47:14 58° 70° (ENE) 20:51:26 2200.000
CUTE 1.7 + AOD 2 29 May 20:46:08 20:50:18 57° 70° (ENE) 20:54:28 437.475
BEESAT 2 29 May 20:47:13 20:51:10 41° 332° (NNW) 20:55:08 435.950
Cosmos 2491 29 May 20:50:59 20:59:51 79° 284° (WNW) 21:08:46 435.465 / 435.565
BRITE-PL 29 May 20:52:00 20:57:20 67° 258° (WSW) 21:03:01 437.365/2234.400
MOZHAYETS 4 29 May 20:55:22 20:56:24 11° 315° (NW) 20:57:17
AIST 2 29 May 20:56:11 21:00:28 69° 322° (NW) 21:04:46 435.215
UKube-1 29 May 20:58:19 21:00:11 13° 49° (NE) 21:02:11 .
AIST 1 29 May 20:58:39 21:02:43 44° 94° (E) 21:06:50
O/OREOS (USA 219) 29 May 21:00:57 21:01:22 10° 359° (N) 21:01:48 437.305
ZACube-1 29 May 21:01:02 21:04:29 22° 57° (ENE) 21:07:58 437.345
HO-68 29 May 21:02:20 21:09:33 85° 252° (WSW) 21:16:48 435.675
CUBESAT XI-V 29 May 21:02:58 21:07:26 43° 295° (WNW) 21:11:52 437.345
SEEDS 29 May 21:03:49 21:08:01 69° 72° (ENE) 21:12:13 437.485
Oscar 11 29 May 21:05:52 21:09:42 32° 63° (ENE) 21:13:35 145.826/435.025
DANDE 29 May 21:06:40 21:10:52 15° 24° (NNE) 21:14:58 436.750
PRISM 29 May 21:06:48 21:10:57 70° 290° (WNW) 21:15:06 437.425
DX 1 29 May 21:10:41 21:13:22 16° 52° (NE) 21:16:09 434.975-435.025
CUBEBUG 2 29 May 21:11:56 21:16:15 35° 63° (ENE) 21:20:32 437.445
COMPASS 1 29 May 21:12:05 21:16:14 69° 72° (ENE) 21:20:24 437.405
GONETS M04 29 May 21:12:57 21:17:16 14° 25° (NNE) 21:21:49
M-CUBED/EXP-1 PRIME 29 May 21:16:34 21:19:46 42° 106° (ESE) 21:22:56 437.505
CUSAT 1 29 May 21:17:53 21:22:07 15° 29° (NNE) 21:26:11 437.405
AAUSAT CUBESAT 2 29 May 21:21:32 21:25:41 74° 72° (ENE) 21:29:51 437.432
AUBIESAT-1 29 May 21:21:44 21:24:56 42° 106° (ESE) 21:28:06 437.475
DOVE 4 29 May 21:24:47 21:30:03 72° 257° (WSW) 21:35:25 437.250
DELFI C3 29 May 21:28:27 21:32:07 35° 65° (ENE) 21:35:49 145.870
BEESAT 3 29 May 21:32:56 21:36:31 27° 344° (NNW) 21:40:05 437.485
VELOX 1 29 May 21:36:55 21:39:35 16° 52° (NE) 21:42:23 145.980
Cosmos 2504 29 May 21:48:09 21:55:28 86° 260° (W) 22:02:40 435.465 / 435.565
UWE-3 29 May 21:52:19 21:56:55 60° 70° (ENE) 22:01:29 435.000/436.395/437.385
ESTCUBE 1 29 May 21:52:20 21:54:45 15° 50° (NE) 21:57:18 437.505/2401.250
FUNcube-1 29 May 21:54:04 21:58:29 51° 68° (ENE) 22:02:53 145.935
STRAND 1 29 May 21:58:08 22:02:56 40° 298° (WNW) 22:07:43 437.568
HUMSAT D 29 May 22:04:54 22:08:48 34° 64° (ENE) 22:12:42 437.325/437.525
AISAT 29 May 22:08:22 22:12:04 26° 59° (ENE) 22:15:51 437.250
CINEMA 3 29 May 22:17:35 22:22:29 48° 262° (W) 22:27:20 145.822/145.860
50 SAT 29 May 22:17:51 22:21:14 27° 62° (ENE) 22:24:38 437.505
GOMX 1 29 May 22:18:30 22:22:52 24° 273° (W) 22:27:16 467.674
CANX-2 29 May 22:20:08 22:23:31 22° 270° (W) 22:26:50 2200.000
CUTE 1.7 + AOD 2 29 May 22:23:09 22:26:34 22° 270° (W) 22:29:54 437.475
BEESAT 2 29 May 22:26:44 22:30:08 24° 355° (N) 22:33:33 435.950
UKube-1 29 May 22:31:17 22:35:32 58° 68° (ENE) 22:39:50 .
BRITE-PL 29 May 22:33:58 22:37:04 15° 282° (WNW) 22:40:02 437.365/2234.400
ZACube-1 29 May 22:35:50 22:40:26 75° 256° (WSW) 22:44:59 437.345
AIST 2 29 May 22:35:56 22:39:41 28° 345° (NNW) 22:43:26 435.215
AIST 1 29 May 22:36:48 22:40:33 28° 295° (WNW) 22:44:19
O/OREOS (USA 219) 29 May 22:40:06 22:42:44 15° 25° (NNE) 22:45:27 437.305
SEEDS 29 May 22:41:17 22:44:19 18° 272° (W) 22:47:14 437.485
Oscar 11 29 May 22:41:41 22:45:49 42° 263° (W) 22:49:57 145.826/435.025
CUBESAT XI-V 29 May 22:42:45 22:43:50 11° 315° (NW) 22:44:45 437.345
PRISM 29 May 22:43:34 22:45:45 14° 309° (NW) 22:47:49 437.425
DX 1 29 May 22:44:38 22:49:00 80° 74° (ENE) 22:53:26 434.975-435.025
CUBEBUG 2 29 May 22:48:18 22:52:53 43° 263° (W) 22:57:24 437.445
COMPASS 1 29 May 22:49:25 22:52:24 18° 272° (W) 22:55:18 437.405
DANDE 29 May 22:49:55 22:57:08 33° 51° (NE) 23:03:21 436.750
Cosmos 2491 29 May 22:51:02 22:58:25 28° 312° (NW) 23:05:41 435.465 / 435.565
M-CUBED/EXP-1 PRIME 29 May 22:51:50 22:54:30 22° 306° (NW) 22:57:07 437.505
HO-68 29 May 22:52:45 22:58:25 24° 274° (W) 23:03:56 435.675
UNISAT 6 29 May 22:56:40 22:58:56 14° 84° (E) 23:01:19 437.425
AUBIESAT-1 29 May 22:56:55 22:59:36 22° 306° (NW) 23:02:12 437.475
AAUSAT CUBESAT 2 29 May 22:59:01 23:01:50 17° 273° (W) 23:04:33 437.432
CUSAT 1 29 May 23:00:21 23:07:25 39° 56° (ENE) 23:13:14 437.405
CUBEBUG 1 29 May 23:00:29 23:04:32 37° 64° (ENE) 23:08:39 437.445
DELFI C3 29 May 23:03:36 23:07:16 33° 265° (W) 23:10:56 145.870
DOVE 4 29 May 23:05:41 23:08:49 15° 279° (W) 23:11:47 437.250
GONETS M04 29 May 23:09:48 23:17:42 35° 55° (NE) 23:25:38
VELOX 1 29 May 23:11:02 23:15:29 76° 72° (ENE) 23:20:00 145.980
BEESAT 3 29 May 23:12:09 23:15:33 24° 8° (N) 23:18:56 437.485
ESTCUBE 1 29 May 23:26:27 23:30:54 67° 70° (ENE) 23:35:25 437.505/2401.250
SPROUT 29 May 23:27:37 23:31:08 25° 59° (ENE) 23:34:42 437.525
UWE-3 29 May 23:29:56 23:33:48 25° 270° (W) 23:37:34 435.000/436.395/437.385
FUNcube-1 29 May 23:31:05 23:35:03 28° 268° (W) 23:38:57 145.935
TISAT 1 29 May 23:38:28 23:41:52 24° 59° (ENE) 23:45:21 437.305
ANTELSAT 29 May 23:39:04 23:43:00 31° 94° (E) 23:46:52 437.575/2403.000
STRAND 1 29 May 23:39:19 23:40:58 11° 319° (NW) 23:42:28 437.568
HUMSAT D 29 May 23:40:29 23:44:32 38° 264° (W) 23:48:33 437.325/437.525
Cosmos 2504 29 May 23:42:32 23:47:52 22° 283° (WNW) 23:52:58 435.465 / 435.565
AISAT 29 May 23:43:59 23:48:24 57° 258° (WSW) 23:52:52 437.250
50 SAT 29 May 23:51:59 23:55:48 43° 261° (W) 23:59:37 437.505
QB50P1 29 May 23:54:55 23:58:19 23° 90° (E) 00:01:45 145.935-145.965
POLYITAN 1 29 May 23:58:40 00:02:11 24° 91° (E) 00:05:45 437.675
BEESAT 2 30 May 00:05:36 00:09:17 29° 18° (NNE) 00:12:56 435.950
UKube-1 30 May 00:08:33 00:12:03 23° 269° (W) 00:15:29 .
TIGRISAT 30 May 00:10:11 00:14:33 54° 100° (E) 00:18:47 435.000
Cosmos 2499 30 May 00:15:08 00:19:48 18° 44° (NE) 00:24:37 435.465 / 435.565
ZACube-1 30 May 00:15:23 00:17:38 13° 277° (W) 00:19:42 437.345
AIST 2 30 May 00:15:45 00:19:21 25° 8° (N) 00:22:55 435.215
O/OREOS (USA 219) 30 May 00:19:01 00:23:20 45° 48° (NE) 00:27:39 437.305
ISS 30 May 00:20:22 00:22:46 19° 153° (SSE) 00:25:12 145.825
DX 1 30 May 00:22:54 00:25:51 17° 273° (W) 00:28:43 434.975-435.025
NANOSAT C BR1 30 May 00:24:41 00:28:44 39° 97° (E) 00:32:45 145.865
ITUPSAT 1 30 May 00:26:07 00:29:20 19° 52° (NE) 00:32:39 437.325
BEESAT 30 May 00:31:26 00:34:50 20° 53° (NE) 00:38:21 436.000
UNISAT 6 30 May 00:32:04 00:36:32 85° 105° (ESE) 00:40:52 437.425
DANDE 30 May 00:33:17 00:41:31 86° 257° (WSW) 00:48:04 436.750
QB50P2 30 May 00:35:06 00:39:19 49° 100° (E) 00:43:29 145.880/145.840
CUBEBUG 1 30 May 00:36:51 00:40:56 36° 264° (W) 00:45:02 437.445
SWISSCUBE 30 May 00:40:01 00:43:46 24° 56° (NE) 00:47:36 437.505
CUSAT 1 30 May 00:43:13 00:50:41 63° 264° (W) 00:56:29 437.405
DUCHIFAT 1 30 May 00:45:45 00:50:00 59° 101° (ESE) 00:54:12 145.980
POPSAT HIP 1 30 May 00:46:31 00:50:48 61° 102° (ESE) 00:55:02 437.405
VELOX 1 30 May 00:49:27 00:52:37 18° 272° (W) 00:55:43 145.980
BEESAT 3 30 May 00:50:23 00:54:22 45° 31° (NNE) 00:58:19 437.485
BUGSAT 1 30 May 00:54:04 00:58:17 52° 100° (E) 01:02:28 437.445
Cosmos 2491 30 May 00:56:00 00:59:26 12° 344° (NNW) 01:02:41 435.465 / 435.565
SPROUT 30 May 01:02:39 01:06:56 58° 259° (W) 01:11:16 437.525
ESTCUBE 1 30 May 01:04:49 01:08:16 21° 271° (W) 01:11:38 437.505/2401.250
GONETS M04 30 May 01:06:46 01:15:37 80° 262° (W) 01:24:20
PCSat 30 May 01:12:05 01:16:58 36° 118° (ESE) 01:21:56 145.827
TISAT 1 30 May 01:13:08 01:17:21 59° 258° (WSW) 01:21:38 437.305
ANTELSAT 30 May 01:15:45 01:19:57 43° 295° (WNW) 01:24:02 437.575/2403.000
KKS-1 30 May 01:20:42 01:22:49 13° 49° (NE) 01:25:03 437.445
QB50P1 30 May 01:30:18 01:34:32 57° 291° (WNW) 01:38:43 145.935-145.965
POLYITAN 1 30 May 01:34:11 01:38:24 53° 292° (WNW) 01:42:34 437.675
Oscar 19 30 May 01:40:10 01:42:52 14° 82° (E) 01:45:46 437.125/150
BEESAT 2 30 May 01:43:43 01:47:53 80° 40° (NE) 01:52:00 435.950
TIGRISAT 30 May 01:47:21 01:51:04 26° 301° (WNW) 01:54:38 435.000
AIST 2 30 May 01:54:36 01:58:46 48° 31° (NNE) 02:02:53 435.215
ISS 30 May 01:55:37 01:58:40 38° 173° (S) 02:01:44 145.825
O/OREOS (USA 219) 30 May 01:58:37 02:02:42 35° 249° (WSW) 02:06:44 437.305
NANOSAT C BR1 30 May 02:00:38 02:04:32 33° 297° (WNW) 02:08:22 145.865
ITUPSAT 1 30 May 02:01:51 02:06:37 83° 71° (ENE) 02:11:26 437.325
BEESAT 30 May 02:07:23 02:12:10 88° 254° (WSW) 02:16:58 436.000
Cosmos 2499 30 May 02:07:44 02:14:47 61° 71° (ENE) 02:21:49 435.465 / 435.565
UNISAT 6 30 May 02:09:41 02:12:47 19° 306° (NW) 02:15:46 437.425
QB50P2 30 May 02:11:20 02:15:01 28° 300° (WNW) 02:18:38 145.880/145.840
STARS 30 May 02:15:04 02:18:29 22° 56° (ENE) 02:21:58 437.465
SWISSCUBE 30 May 02:16:30 02:21:15 71° 257° (WSW) 02:26:03 437.505
DANDE 30 May 02:17:26 02:23:37 25° 282° (WNW) 02:28:47 436.750
DUCHIFAT 1 30 May 02:22:02 02:25:31 24° 301° (WNW) 02:28:57 145.980
POPSAT HIP 1 30 May 02:22:55 02:26:23 24° 302° (WNW) 02:29:45 437.405
CUSAT 1 30 May 02:27:30 02:31:45 16° 288° (WNW) 02:35:19 437.405
BEESAT 3 30 May 02:28:27 02:32:23 44° 232° (SW) 02:36:15 437.485
BUGSAT 1 30 May 02:29:55 02:33:32 27° 300° (WNW) 02:37:06 437.445
KKS-1 30 May 02:54:13 02:58:39 59° 69° (ENE) 03:03:06 437.445
PCSat 30 May 02:54:49 03:00:13 63° 319° (NW) 03:05:39 145.827
Gurwin Techsat 1B 30 May 02:57:58 03:01:52 21° 87° (E) 03:05:53 435.225
Cosmos 2491 30 May 02:58:09 03:01:34 13° 18° (NNE) 03:05:10 435.465 / 435.565
GONETS M04 30 May 03:04:34 03:11:15 24° 285° (WNW) 03:17:38
QB50P1 30 May 03:07:47 03:09:36 12° 311° (NW) 03:11:17 145.935-145.965
POLYITAN 1 30 May 03:11:56 03:13:27 11° 312° (NW) 03:14:49 437.675
MOZHAYETS 4 30 May 03:13:13 03:15:46 15° 51° (NE) 03:18:26
Oscar 19 30 May 03:18:04 03:23:16 73° 103° (ESE) 03:28:25 437.125/150
SO-50 30 May 03:18:23 03:22:21 27° 120° (ESE) 03:26:28 436.795
BEESAT 2 30 May 03:22:23 03:25:34 21° 241° (WSW) 03:28:39 435.950
ISS 30 May 03:31:43 03:34:43 34° 192° (SSW) 03:37:43 145.825
AIST 2 30 May 03:33:18 03:37:21 43° 233° (SW) 03:41:20 435.215
ITAMSAT 1 30 May 03:39:36 03:44:32 40° 97° (E) 03:49:29 435.822/435.867
ITUPSAT 1 30 May 03:41:51 03:45:11 18° 273° (W) 03:48:26 437.325
BEESAT 30 May 03:47:42 03:50:47 16° 275° (W) 03:53:42 436.000
STARS 30 May 03:50:05 03:54:33 71° 256° (WSW) 03:59:02 437.465
SWISSCUBE 30 May 03:57:47 04:00:05 13° 278° (W) 04:02:12 437.505
AO-7 30 May 03:57:58 04:03:12 18° 80° (E) 04:08:47 29.400- 29.500
Cosmos 2499 30 May 04:01:18 04:07:38 36° 274° (W) 04:13:54 435.465 / 435.565
KKS-1 30 May 04:31:59 04:35:39 24° 269° (W) 04:39:17 437.445
Gurwin Techsat 1B 30 May 04:37:13 04:42:35 84° 290° (WNW) 04:47:55 435.225
PCSat 30 May 04:39:51 04:44:36 29° 344° (NNW) 04:49:19 145.827
MOZHAYETS 4 30 May 04:47:44 04:52:17 70° 71° (ENE) 04:56:52
Cosmos 2491 30 May 04:55:07 05:02:30 29° 49° (NE) 05:09:59 435.465 / 435.565
JAS-2 30 May 04:56:13 05:01:01 37° 95° (E) 05:05:55 435.910
SO-50 30 May 04:57:41 05:02:31 78° 321° (NW) 05:07:29 436.795
Oscar 19 30 May 04:57:59 05:02:14 26° 305° (NW) 05:06:25 437.125/150
CUBESAT XI-V 30 May 05:01:11 05:04:01 17° 52° (NE) 05:06:57 437.345
HORYU 2 30 May 05:07:54 05:12:10 44° 99° (E) 05:16:26 437.375
ISS 30 May 05:08:33 05:10:31 15° 211° (SSW) 05:12:26 145.825
ITAMSAT 1 30 May 05:19:11 05:24:08 43° 297° (WNW) 05:29:03 435.822/435.867
STARS 30 May 05:30:05 05:31:55 12° 277° (W) 05:33:33 437.465
AO-7 30 May 05:49:38 05:57:58 64° 105° (ESE) 06:06:17 29.400- 29.500
YUBILEINY 30 May 05:59:45 06:04:28 17° 68° (ENE) 06:09:35 435.215
STRAND 1 30 May 06:04:17 06:08:33 28° 56° (ENE) 06:12:54 437.568
Gurwin Techsat 1B 30 May 06:17:59 06:21:56 21° 309° (NW) 06:25:48 435.225
CUTE-I 30 May 06:19:27 06:21:31 12° 80° (E) 06:23:51 437.470
PCSat 30 May 06:24:59 06:29:32 26° 9° (N) 06:34:06 145.827
MOZHAYETS 4 30 May 06:26:34 06:30:02 20° 272° (W) 06:33:25
PRISM 30 May 06:29:05 06:32:50 36° 64° (ENE) 06:36:38 437.425
CUBESAT XI-V 30 May 06:36:10 06:40:47 76° 71° (ENE) 06:45:28 437.345
M-CUBED/EXP-1 PRIME 30 May 06:37:20 06:40:51 33° 58° (ENE) 06:44:09 437.505
SO-50 30 May 06:39:13 06:43:42 34° 344° (NNW) 06:48:15 436.795
Cubesat XI-IV 30 May 06:40:08 06:43:41 18° 85° (E) 06:47:23 437.490
JAS-2 30 May 06:41:25 06:46:22 44° 297° (WNW) 06:51:19 435.910
AUBIESAT-1 30 May 06:42:08 06:45:35 32° 58° (ENE) 06:48:50 437.475
HORYU 2 30 May 06:44:46 06:48:44 32° 299° (WNW) 06:52:38 437.375
Cosmos 2491 30 May 06:52:02 07:00:57 82° 76° (ENE) 07:09:49 435.465 / 435.565
AIST 1 30 May 06:57:49 07:01:37 28° 64° (ENE) 07:05:27
ITAMSAT 1 30 May 07:00:21 07:02:30 12° 319° (NW) 07:04:30 435.822/435.867
STRAND 1 30 May 07:42:21 07:47:27 66° 257° (WSW) 07:52:35 437.568
AO-7 30 May 07:42:44 07:50:39 47° 308° (NW) 07:58:29 29.400- 29.500
YUBILEINY 30 May 07:51:04 07:59:32 59° 92° (E) 08:08:03 435.215
CUTE-I 30 May 07:57:31 08:02:51 61° 102° (ESE) 08:08:12 437.470
RS-15 30 May 08:02:41 08:10:13 23° 101° (E) 08:18:20 29.354- 29.394
PRISM 30 May 08:04:34 08:08:19 33° 264° (W) 08:12:05 437.425
PCSat 30 May 08:08:54 08:14:10 47° 34° (NE) 08:19:25 145.827
M-CUBED/EXP-1 PRIME 30 May 08:12:06 08:15:43 33° 255° (WSW) 08:19:06 437.505
CUBESAT XI-V 30 May 08:15:26 08:18:49 19° 273° (W) 08:22:08 437.345
AUBIESAT-1 30 May 08:16:47 08:20:23 34° 255° (WSW) 08:23:44 437.475
Cubesat XI-IV 30 May 08:19:16 08:24:41 85° 106° (ESE) 08:30:05 437.490
SO-50 30 May 08:20:58 08:25:22 31° 8° (N) 08:29:48 436.795
HO-68 30 May 08:23:49 08:26:39 13° 76° (ENE) 08:29:52 435.675
JAS-2 30 May 08:28:29 08:30:20 12° 320° (NW) 08:32:01 435.910
GOMX 1 30 May 08:34:30 08:37:43 16° 81° (E) 08:41:01 467.674
AIST 1 30 May 08:35:16 08:39:29 46° 265° (W) 08:43:42
Cosmos 2504 30 May 08:45:38 08:50:07 17° 73° (ENE) 08:54:45 435.465 / 435.565
BRITE-PL 30 May 08:49:32 08:54:29 30° 89° (E) 08:59:18 437.365/2234.400
Cosmos 2491 30 May 08:49:33 08:57:05 32° 280° (W) 09:04:23 435.465 / 435.565
ANTELSAT 30 May 09:10:50 09:13:24 15° 51° (NE) 09:16:04 437.575/2403.000
DOVE 4 30 May 09:17:12 09:21:11 23° 86° (E) 09:25:06 437.250
STRAND 1 30 May 09:25:21 09:27:46 13° 279° (W) 09:29:59 437.568
POLYITAN 1 30 May 09:26:42 09:27:41 11° 47° (NE) 09:28:49 437.675
AO-7 30 May 09:35:48 09:41:41 22° 333° (NNW) 09:47:26 29.400- 29.500
CUTE-I 30 May 09:38:00 09:42:43 32° 303° (WNW) 09:47:23 437.470
TIGRISAT 30 May 09:40:37 09:44:12 23° 57° (ENE) 09:47:49 435.000
YUBILEINY 30 May 09:48:21 09:56:45 47° 297° (WNW) 10:05:06 435.215
NANOSAT C BR1 30 May 09:50:47 09:53:16 15° 52° (NE) 09:55:50 145.865
PCSat 30 May 09:52:26 09:57:45 55° 237° (WSW) 10:03:02 145.827
CANX-2 30 May 09:56:40 10:00:40 40° 97° (E) 10:04:40 2200.000
CUTE 1.7 + AOD 2 30 May 09:59:39 10:03:38 39° 97° (E) 10:07:37 437.475
Cubesat XI-IV 30 May 10:00:01 10:04:17 24° 307° (NW) 10:08:28 437.490
QB50P2 30 May 10:01:02 10:03:58 19° 55° (NE) 10:07:00 145.880/145.840
SO-50 30 May 10:01:53 10:06:47 56° 32° (NNE) 10:11:41 436.795
UNISAT 6 30 May 10:02:02 10:06:10 33° 62° (ENE) 10:10:15 437.425
CINEMA 3 30 May 10:05:21 10:09:26 28° 91° (E) 10:13:23 145.822/145.860
HO-68 30 May 10:09:22 10:16:22 52° 100° (E) 10:23:20 435.675
RS-15 30 May 10:09:49 10:20:33 68° 126° (SE) 10:31:46 29.354- 29.394
DUCHIFAT 1 30 May 10:10:54 10:14:03 21° 57° (ENE) 10:17:18 145.980
GOMX 1 30 May 10:11:24 10:16:52 77° 102° (ESE) 10:22:03 467.674
POPSAT HIP 1 30 May 10:11:58 10:15:13 22° 57° (ENE) 10:18:32 437.405
SEEDS 30 May 10:16:22 10:20:26 47° 99° (E) 10:24:29 437.485
BUGSAT 1 30 May 10:17:32 10:20:23 18° 55° (NE) 10:23:20 437.445
ZACube-1 30 May 10:18:30 10:20:38 14° 83° (E) 10:22:55 437.345
Oscar 11 30 May 10:21:37 10:24:59 22° 90° (E) 10:28:24 145.826/435.025
COMPASS 1 30 May 10:23:36 10:27:37 46° 98° (E) 10:31:39 437.405
BRITE-PL 30 May 10:27:45 10:33:24 63° 291° (WNW) 10:38:49 437.365/2234.400
CUBEBUG 2 30 May 10:32:11 10:35:56 26° 91° (E) 10:39:36 437.445
AAUSAT CUBESAT 2 30 May 10:32:31 10:36:34 48° 99° (E) 10:40:35 437.432
Cosmos 2504 30 May 10:34:18 10:42:13 64° 95° (E) 10:49:39 435.465 / 435.565
DELFI C3 30 May 10:35:18 10:38:24 21° 90° (E) 10:41:33 145.870
